[[{"header":{"parameterUnit":"m.s-1","parameterCategory":1,"la1":30.2992,"la2":30.254,"lo1":-89.0895,"lo2":-89.0443,"dy":0.0025,"dx":0.0025,"nx":19,"ny":19,"refTime":"2026-05-21T09:00:00:Z","depth":0,"parameterNumber":2,"parameterNumberName":"U-component_of_WINDS"},"data":[0,0,0,-1.6727,-1.673,-1.6843,-1.6843,-1.6978,-1.6979,0,0,0,0,0,0,0,0,0,0,0,-1.6687,-1.6688,-1.6727,-1.673,-1.6843,-1.6843,-1.6977,-1.6979,0,0,0,0,0,0,0,0,0,0,0,-1.6687,-1.6688,-1.6688,-1.673,-1.6843,-1.6843,-1.6977,-1.6896,0,0,0,0,0,0,0,0,0,0,-1.6788,-1.6744,-1.6687,-1.6688,-1.6731,-1.6842,-1.6843,-1.6892,-1.6901,-1.6922,0,-1.6938,0,-1.696,-1.6987,-1.6987,0,0,0,-1.6735,-1.6736,-1.6773,-1.6689,-1.6732,-1.6842,-1.6793,-1.6897,-1.6907,-1.6933,-1.694,-1.6946,-1.6963,-1.6988,-1.6988,-1.709,-1.7091,0,0,-1.6729,-1.6704,-1.6766,-1.6779,-1.676,-1.679,-1.6797,-1.6903,-1.6909,-1.6941,-1.6949,-1.6965,-1.6989,-1.699,-1.709,-1.7091,0,0,0,-1.6707,-1.6699,-1.6734,-1.6773,-1.6794,-1.6793,-1.6801,-1.6905,-1.6918,-1.695,-1.6966,-1.6989,-1.6991,-1.709,-1.709,-1.7077,0,0,0,-1.6704,-1.6687,-1.6731,-1.6717,-1.6792,-1.6851,-1.68,-1.691,-1.6923,-1.6966,-1.6989,-1.6992,-1.709,-1.709,-1.7077,-1.7075,0,0,0,-1.6682,-1.6685,-1.6698,-1.6715,-1.6763,-1.685,-1.6869,-1.6914,-1.6933,-1.6988,-1.6992,-1.709,-1.709,-1.7077,-1.7075,-1.7094,0,0,0,-1.6652,-1.6686,-1.6698,-1.6742,-1.6761,-1.684,-1.6869,-1.6929,-1.6974,-1.699,-1.709,-1.709,-1.7077,-1.7075,-1.7094,-1.7106,-1.7108,0,0,-1.6681,-1.6688,-1.6716,-1.673,-1.68,-1.6825,-1.6894,-1.6959,-1.6988,-1.7055,-1.7058,-1.7077,-1.7075,-1.7094,-1.7132,-1.7134,0,0,0,-1.6717,-1.6737,-1.6761,-1.6802,-1.6852,-1.6895,-1.6953,-1.6977,-1.7035,-1.7017,-1.709,-1.709,-1.7102,-1.7109,-1.711,-1.7122,-1.7092,-1.7092,-1.7092,-1.6723,-1.6756,-1.6805,-1.6851,-1.6891,-1.695,-1.6985,-1.7028,-1.7051,-1.7068,-1.7088,-1.7107,-1.7114,-1.7115,-1.7127,-1.7097,-1.7097,-1.7097,-1.7097,-1.6769,-1.6802,-1.683,-1.6887,-1.6922,-1.697,-1.7028,-1.7042,-1.7093,-1.7095,-1.7107,-1.7106,-1.7116,-1.7128,-1.7096,-1.7097,-1.7097,-1.7097,-1.7097,-1.6776,-1.6798,-1.6826,-1.6888,-1.6933,-1.698,-1.7026,-1.7057,-1.7087,-1.7099,-1.7123,-1.7124,-1.7128,-1.7108,-1.7108,-1.7109,-1.7109,-1.7109,-1.7109,-1.6773,-1.6805,-1.684,-1.6895,-1.6925,-1.6969,-1.7027,-1.7058,-1.71,-1.7119,-1.712,-1.714,-1.7111,-1.7102,-1.711,-1.711,-1.7109,-1.7109,-1.7109,-1.6807,-1.6804,-1.6858,-1.6888,-1.6954,-1.6996,-1.7034,-1.7094,-1.7125,-1.7146,-1.7165,-1.7138,-1.7148,-1.7147,-1.714,-1.7157,-1.7157,-1.7157,-1.7157,-1.6813,-1.6821,-1.6882,-1.6928,-1.6977,-1.7016,-1.7076,-1.7121,-1.7168,-1.7189,-1.7191,-1.7185,-1.7182,-1.7194,-1.7192,-1.7186,-1.7215,-1.7215,-1.7215,-1.6836,-1.685,-1.6894,-1.6938,-1.6993,-1.7038,-1.7096,-1.7147,-1.72,-1.7218,-1.7206,-1.7203,-1.7194,-1.7189,-1.7206,-1.7202,-1.7193,0,0]},{"header":{"parameterUnit":"m.s-1","parameterCategory":1,"la1":30.2992,"la2":30.254,"lo1":-89.0895,"lo2":-89.0443,"dy":0.0025,"dx":0.0025,"nx":19,"ny":19,"refTime":"2026-05-21T09:00:00:Z","depth":0,"parameterNumber":3,"parameterNumberName":"V-component_of_WINDS"},"data":[0,0,0,4.8557,4.856,4.8709,4.8709,4.8902,4.8904,0,0,0,0,0,0,0,0,0,0,0,4.8518,4.8519,4.8557,4.8561,4.8709,4.8709,4.8902,4.8904,0,0,0,0,0,0,0,0,0,0,0,4.8517,4.8519,4.8521,4.8561,4.8708,4.8709,4.8901,4.8788,0,0,0,0,0,0,0,0,0,0,4.8643,4.8612,4.8518,4.8521,4.8562,4.8708,4.8709,4.8782,4.8795,4.8837,0,4.8879,0,4.8895,4.8917,4.8918,0,0,0,4.8556,4.8601,4.8637,4.8521,4.8564,4.8708,4.8641,4.8789,4.8804,4.8854,4.8881,4.8888,4.8898,4.8919,4.892,4.9186,4.9187,0,0,4.8548,4.8546,4.8628,4.8647,4.8627,4.8636,4.8645,4.8798,4.8826,4.8882,4.8893,4.8901,4.892,4.8921,4.9185,4.9186,0,0,0,4.8528,4.8541,4.8573,4.8639,4.8666,4.864,4.8651,4.8819,4.883,4.8895,4.8903,4.8921,4.8924,4.9183,4.9185,4.9257,0,0,0,4.8522,4.8528,4.857,4.857,4.8663,4.8745,4.8669,4.882,4.8837,4.8902,4.8921,4.8926,4.9181,4.9184,4.9251,4.929,0,0,0,4.8506,4.8526,4.855,4.8569,4.8633,4.8743,4.8762,4.8823,4.8843,4.8918,4.8926,4.918,4.9184,4.9246,4.9282,4.9362,0,0,0,4.8488,4.8609,4.8551,4.8689,4.8632,4.8786,4.8761,4.8875,4.8949,4.8922,4.9182,4.9185,4.9245,4.9278,4.9356,4.9429,4.9459,0,0,4.8639,4.8627,4.8708,4.8661,4.8826,4.8764,4.8938,4.9005,4.9012,4.9127,4.9134,4.9253,4.9282,4.936,4.9623,4.9647,0,0,0,4.8755,4.8814,4.8858,4.893,4.8986,4.9038,4.9079,4.9105,4.9203,4.9072,4.9302,4.9319,4.9365,4.94,4.942,4.9461,4.9201,4.92,4.92,4.8966,4.8972,4.9107,4.9132,4.9201,4.9244,4.93,4.9341,4.9324,4.9379,4.9413,4.9572,4.9613,4.9628,4.967,4.945,4.9451,4.9451,4.9451,4.9189,4.9273,4.9251,4.9375,4.938,4.9482,4.9528,4.9513,4.9609,4.9546,4.9587,4.9519,4.9654,4.9691,4.9457,4.9456,4.9455,4.9454,4.9454,4.9328,4.937,4.9401,4.9506,4.9586,4.9605,4.97,4.9699,4.9699,4.974,4.9777,4.9776,4.9776,4.9757,4.9758,4.9758,4.9759,4.9759,4.976,4.9462,4.9494,4.9575,4.9647,4.9694,4.9755,4.98,4.9846,4.9895,4.9888,4.9888,4.9867,4.9666,4.9616,4.9768,4.9767,4.9766,4.9765,4.9764,4.9688,4.9637,4.9763,4.981,4.9895,4.9975,4.9974,5.0067,5.0104,5.0151,5.0121,4.9972,4.9959,4.9943,4.9902,5.0118,5.0118,5.0118,5.0119,4.9807,4.9801,4.993,5.0006,5.008,5.0093,5.0233,5.0269,5.0298,5.0322,5.029,5.0235,5.0219,5.0215,5.0193,5.0155,5.0431,5.0432,5.0432,4.9947,4.9949,5.0069,5.01,5.0167,5.0223,5.0356,5.0443,5.0464,5.0445,5.034,5.0327,5.0238,5.0209,5.0188,5.0154,5.0084,0,0]}]]